Regional Weather Roundup
Issued by NWS

Home | Current Version | Previous Version | Text Only | Print | Product List | Glossary Off
Versions: 1 2 3 4 5 6 7 8 9 10 11 12 13 14 15 16 17 18 19 20 21 22 23 24 25 26 27 28 29 30 31 32 33 34 35 36 37 38 39 40 41 42 43 44 45 46 47 48 49 50

000
ASUS43 KLMK 280510
RWRKY
KENTUCKY REGIONAL WEATHER ROUNDUP
NATIONAL WEATHER SERVICE LOUISVILLE KY
100 AM EDT THU AUG 28 2014

NOTE "FAIR" INDICATES FEW OR NO CLOUDS BELOW 12,000 FEET
WITH NO SIGNIFICANT WEATHER AND/OR OBSTRUCTIONS TO VISIBILITY.

KYZ001>023-026-027-061>063-070>075-280600-
WESTERN AND SOUTH CENTRAL KENTUCKY

CITY           SKY/WX    TMP DP  RH WIND       PRES   REMARKS
PADUCAH        MOCLDY    77  72  84 CALM      30.03S
HENDERSON      CLOUDY    73  70  88 CALM      30.04F
OWENSBORO      PTCLDY    78  73  84 CALM      30.05S
HOPKINSVILLE   CLEAR     77  74  92 CALM      30.04F
BOWLING GREEN  MOCLDY    75  71  87 CALM      30.05F
GLASGOW        PTCLDY    72  71  98 CALM      30.05F FOG
$$

KYZ024-025-028>034-038-045-046-053-280600-
NORTH CENTRAL KENTUCKY

CITY           SKY/WX    TMP DP  RH WIND       PRES   REMARKS
LOUISVILLE/SDF MOCLDY    75  72  90 SE5       30.05S FOG
LOUISVILLE/LOU MOCLDY    74  72  93 CALM      30.05F FOG
FORT KNOX      CLOUDY    71  71 100 CALM      30.05S FOG
$$

KYZ035>037-039>044-047>052-055>060-089>105-280600-
NORTHEAST KENTUCKY

CITY           SKY/WX    TMP DP  RH WIND       PRES   REMARKS
LEXINGTON      PTCLDY    71  68  90 CALM      30.07S
COVINGTON      PTCLDY    76  69  79 N6        30.07F
FRANKFORT      MOCLDY    70  69  97 CALM      30.06S FOG
$$

KYZ054-064>069-076>088-106>120-280600-
SOUTHEAST KENTUCKY

CITY           SKY/WX    TMP DP  RH WIND       PRES   REMARKS
JACKSON        PTCLDY    73  68  84 CALM      30.08F
LONDON         PTCLDY    72  69  90 CALM      30.09S
SOMERSET       PTCLDY    70  70 100 CALM      30.08S FOG
MIDDLESBORO    CLEAR     67  65  94 CALM      30.10S
MONTICELLO     CLEAR     70  69  96 CALM      30.09S FOG
$$



USA.gov is the U.S. government's official web portal to all federal, state and local government web resources and services.